TimeCDT,TemperatureF,Dew PointF,Humidity,Sea Level PressureIn,VisibilityMPH,Wind Direction,Wind SpeedMPH,Gust SpeedMPH,PrecipitationIn,Events,Conditions,WindDirDegrees,DateUTC
12:15 AM,69.8,69.8,100,30.04,10.0,SSE,5.8,-,N/A,,Clear,150,2013-06-17 05:15:00
12:35 AM,69.8,69.8,100,30.04,10.0,SE,5.8,-,N/A,,Clear,140,2013-06-17 05:35:00
12:55 AM,69.8,69.8,100,30.04,10.0,Calm,Calm,-,N/A,,Clear,0,2013-06-17 05:55:00
1:15 AM,69.8,69.8,100,30.03,7.0,Calm,Calm,-,N/A,,Clear,0,2013-06-17 06:15:00
1:35 AM,69.8,69.8,100,30.03,7.0,Calm,Calm,-,N/A,,Clear,0,2013-06-17 06:35:00
1:55 AM,69.8,69.8,100,30.03,5.0,Calm,Calm,-,N/A,,Clear,0,2013-06-17 06:55:00
2:15 AM,69.8,69.8,100,30.03,5.0,Calm,Calm,-,N/A,,Clear,0,2013-06-17 07:15:00
2:35 AM,69.8,69.8,100,30.03,7.0,Calm,Calm,-,N/A,,Scattered Clouds,0,2013-06-17 07:35:00
2:55 AM,69.8,69.8,100,30.03,5.0,SE,3.5,-,N/A,,Mostly Cloudy,130,2013-06-17 07:55:00
3:15 AM,69.8,69.8,100,30.02,5.0,Calm,Calm,-,N/A,Rain,Light Rain,0,2013-06-17 08:15:00
3:35 AM,69.8,69.8,100,30.02,4.0,Calm,Calm,-,N/A,,Light Drizzle,0,2013-06-17 08:35:00
3:55 AM,69.8,69.8,100,30.02,5.0,Calm,Calm,-,N/A,,Scattered Clouds,0,2013-06-17 08:55:00
4:15 AM,69.8,69.8,100,30.02,5.0,East,3.5,-,N/A,,Scattered Clouds,100,2013-06-17 09:15:00
4:35 AM,69.8,69.8,100,30.02,5.0,Calm,Calm,-,N/A,,Scattered Clouds,0,2013-06-17 09:35:00
4:55 AM,69.8,69.8,100,30.02,5.0,ESE,3.5,-,N/A,,Clear,120,2013-06-17 09:55:00
5:15 AM,69.8,69.8,100,30.02,5.0,ESE,3.5,-,N/A,,Scattered Clouds,110,2013-06-17 10:15:00
5:35 AM,69.8,69.8,100,30.02,5.0,SE,3.5,-,N/A,,Scattered Clouds,130,2013-06-17 10:35:00
5:55 AM,69.8,69.8,100,30.02,4.0,SE,3.5,-,N/A,,Mostly Cloudy,130,2013-06-17 10:55:00
6:15 AM,69.8,69.8,100,30.02,4.0,SE,4.6,-,N/A,,Overcast,130,2013-06-17 11:15:00
6:35 AM,69.8,69.8,100,30.02,5.0,Calm,Calm,-,N/A,,Mostly Cloudy,0,2013-06-17 11:35:00
6:55 AM,69.8,69.8,100,30.02,5.0,SE,3.5,-,N/A,,Scattered Clouds,130,2013-06-17 11:55:00
7:15 AM,71.6,71.6,100,30.02,4.0,SSE,3.5,-,N/A,,Scattered Clouds,150,2013-06-17 12:15:00
7:35 AM,71.6,71.6,100,30.02,4.0,Calm,Calm,-,N/A,,Mostly Cloudy,0,2013-06-17 12:35:00
7:55 AM,71.6,71.6,100,30.03,5.0,SE,4.6,-,N/A,,Mostly Cloudy,140,2013-06-17 12:55:00
8:15 AM,73.4,73.4,100,30.03,7.0,SSE,4.6,-,N/A,,Mostly Cloudy,150,2013-06-17 13:15:00
8:35 AM,73.4,73.4,100,30.03,7.0,SSE,5.8,-,N/A,,Mostly Cloudy,150,2013-06-17 13:35:00
8:55 AM,73.4,73.4,100,30.03,7.0,Calm,Calm,-,N/A,,Overcast,0,2013-06-17 13:55:00
9:15 AM,75.2,75.2,100,30.04,7.0,SSE,3.5,-,N/A,,Overcast,160,2013-06-17 14:15:00
9:35 AM,77.0,77.0,100,30.04,7.0,Calm,Calm,-,N/A,,Mostly Cloudy,0,2013-06-17 14:35:00
9:55 AM,78.8,78.8,100,30.04,10.0,Calm,Calm,-,N/A,,Mostly Cloudy,0,2013-06-17 14:55:00
10:15 AM,78.8,78.8,100,30.03,10.0,Calm,Calm,-,N/A,,Mostly Cloudy,0,2013-06-17 15:15:00
10:35 AM,80.6,73.4,79,30.03,10.0,Calm,Calm,-,N/A,,Scattered Clouds,0,2013-06-17 15:35:00
10:55 AM,82.4,71.6,70,30.03,10.0,SW,4.6,-,N/A,,Scattered Clouds,230,2013-06-17 15:55:00
11:15 AM,82.4,71.6,70,30.03,10.0,West,4.6,-,N/A,,Scattered Clouds,260,2013-06-17 16:15:00
11:35 AM,84.2,71.6,66,30.02,10.0,South,3.5,-,N/A,,Clear,180,2013-06-17 16:35:00
11:55 AM,86.0,68.0,55,30.01,10.0,SW,4.6,-,N/A,,Scattered Clouds,230,2013-06-17 16:55:00
12:15 PM,82.4,69.8,66,30.01,10.0,North,8.1,-,N/A,Thunderstorm,Mostly Cloudy,360,2013-06-17 17:15:00
12:35 PM,80.6,69.8,70,30.00,10.0,South,5.8,-,N/A,,Mostly Cloudy,180,2013-06-17 17:35:00
12:55 PM,73.4,71.6,94,30.04,3.0,North,12.7,-,0.04,Rain-Thunderstorm,Light Thunderstorms and Rain,10,2013-06-17 17:55:00
1:15 PM,73.4,73.4,100,30.01,10.0,ENE,5.8,-,N/A,,Mostly Cloudy,70,2013-06-17 18:15:00
1:35 PM,77.0,69.8,78,30.00,10.0,ENE,4.6,-,N/A,,Clear,60,2013-06-17 18:35:00
1:55 PM,77.0,71.6,83,30.00,10.0,ESE,3.5,-,N/A,,Scattered Clouds,120,2013-06-17 18:55:00
2:15 PM,77.0,69.8,78,30.03,10.0,NW,12.7,19.6,N/A,,Mostly Cloudy,310,2013-06-17 19:15:00
2:35 PM,71.6,68.0,88,30.01,10.0,Calm,Calm,-,0.01,Rain-Thunderstorm,Light Thunderstorms and Rain,0,2013-06-17 19:35:00
2:55 PM,71.6,69.8,94,30.01,10.0,Calm,Calm,-,0.01,,Light Drizzle,0,2013-06-17 19:55:00
3:15 PM,71.6,68.0,88,30.00,10.0,North,3.5,-,N/A,Rain,Light Rain,350,2013-06-17 20:15:00
3:35 PM,69.8,69.8,100,30.01,10.0,ESE,3.5,-,N/A,Rain,Light Rain,110,2013-06-17 20:35:00
3:55 PM,69.8,69.8,100,30.00,10.0,Calm,Calm,-,N/A,,Clear,0,2013-06-17 20:55:00
4:15 PM,71.6,71.6,100,29.99,10.0,Calm,Calm,-,N/A,Thunderstorm,Clear,0,2013-06-17 21:15:00
4:35 PM,75.2,69.8,83,29.98,10.0,East,3.5,-,N/A,,Clear,100,2013-06-17 21:35:00
4:55 PM,77.0,68.0,74,29.98,10.0,Calm,Calm,-,N/A,,Clear,0,2013-06-17 21:55:00
5:15 PM,75.2,68.0,78,29.98,10.0,Calm,Calm,-,N/A,,Clear,0,2013-06-17 22:15:00
5:35 PM,77.0,68.0,74,29.97,10.0,SSE,4.6,-,N/A,,Clear,150,2013-06-17 22:35:00
5:55 PM,75.2,69.8,83,29.98,10.0,Calm,Calm,-,N/A,,Scattered Clouds,0,2013-06-17 22:55:00
6:15 PM,75.2,68.0,78,29.99,10.0,Calm,Calm,-,N/A,,Mostly Cloudy,0,2013-06-17 23:15:00
6:35 PM,73.4,69.8,88,29.98,10.0,Calm,Calm,-,N/A,,Mostly Cloudy,0,2013-06-17 23:35:00
6:55 PM,73.4,71.6,94,29.98,10.0,South,5.8,-,N/A,,Mostly Cloudy,190,2013-06-17 23:55:00
7:15 PM,73.4,73.4,100,30.00,4.0,West,6.9,-,0.13,Rain,Heavy Rain,270,2013-06-18 00:15:00
7:35 PM,71.6,71.6,100,30.01,5.0,NW,5.8,-,0.20,Rain,Rain,320,2013-06-18 00:35:00
7:55 PM,69.8,69.8,100,29.99,7.0,Calm,Calm,-,0.24,Rain,Light Rain,0,2013-06-18 00:55:00
8:15 PM,69.8,69.8,100,29.98,7.0,SE,3.5,-,0.01,Rain,Light Rain,140,2013-06-18 01:15:00
8:35 PM,69.8,69.8,100,29.97,5.0,SE,3.5,-,0.02,Rain,Light Rain,130,2013-06-18 01:35:00
8:55 PM,69.8,69.8,100,29.96,7.0,SE,4.6,-,0.03,Rain,Rain,130,2013-06-18 01:55:00
9:15 PM,69.8,69.8,100,29.96,7.0,Calm,Calm,-,N/A,,Scattered Clouds,0,2013-06-18 02:15:00
9:35 PM,69.8,69.8,100,29.96,7.0,Calm,Calm,-,N/A,,Scattered Clouds,0,2013-06-18 02:35:00
9:55 PM,69.8,69.8,100,29.95,5.0,SSE,3.5,-,N/A,,Scattered Clouds,160,2013-06-18 02:55:00
10:15 PM,69.8,69.8,100,29.95,5.0,SSE,4.6,-,N/A,,Clear,160,2013-06-18 03:15:00
10:35 PM,69.8,69.8,100,29.95,7.0,SSE,3.5,-,N/A,,Clear,150,2013-06-18 03:35:00
10:55 PM,69.8,69.8,100,29.95,10.0,South,5.8,-,N/A,,Clear,170,2013-06-18 03:55:00
11:15 PM,69.8,69.8,100,29.95,10.0,South,4.6,-,N/A,,Clear,180,2013-06-18 04:15:00
11:35 PM,69.8,69.8,100,29.94,10.0,South,5.8,-,N/A,,Clear,180,2013-06-18 04:35:00
11:55 PM,69.8,69.8,100,29.94,10.0,South,3.5,-,N/A,,Clear,170,2013-06-18 04:55:00